Location: Newark
(58.8333°N, 23.5833°E)
Time: 19:06:36
(UTC+00:00)

METEOR M2 - Pass Details

Date: 16 December 2019
Orbit: 819 x 827 km, 98.5° (Epoch: 19 January)

Event Time Altitude Azimuth Distance (km) Brightness Sun altitude
Exits shadow 17:40:28 37° 348° (NNW) 1,273 ? -30.0°
Drops below altitude 10° 17:43:37 10° 344° (NNW) 2,431 ? -30.4°
Sets 17:45:58 0° 343° (NNW) 3,367 ? -30.7°
